Weather History for Norfolk, NE

Change the Weather History Date:

Friday, August 2, 2013

  Actual Average Record
Temperature  
Mean Temperature 71 °F 75 °F  
Max Temperature 80 °F 86 °F 106 °F (1930)
Min Temperature 61 °F 63 °F 45 °F (1907)
Degree Days  
Heating Degree Days 0 0  
Month to date heating degree days 0 0  
Since 1 June heating degree days 55 34  
Since 1 July heating degree days 13 4  
Cooling Degree Days 6 10  
Month to date cooling degree days 13 20  
Year to date cooling degree days 551 581  
Since 1 June cooling degree days 487 520  
Growing Degree Days 20 (Base 50)    
Moisture  
Dew Point 63 °F    
Average Humidity 81    
Maximum Humidity 100    
Minimum Humidity 62    
Precipitation  
Precipitation T in 0.11 in 3.30 in (2010)
Month to date precipitation 1.14 0.22  
Year to date precipitation 15.97 17.50  
Snow  
Snow 0.00 in 0.00 in - ()
Month to date snowfall 0.0 0.0  
Since 1 July snowfall 0.0 0.0  
Snow Depth 0.00 in    
Sea Level Pressure  
Sea Level Pressure 29.94 in    
Wind  
Wind Speed 6 mph (ENE)    
Max Wind Speed 16 mph    
Max Gust Speed 21 mph    
Visibility 9 miles    
Events      
T = Trace of Precipitation, MM = Missing Value Source: NWS Daily Summary

Daily Weather History Graph

Daily Weather History Graph

Search for Another Location

Airport:

Trip Planner

Search our weather history database for the weather conditions in past years. The results will help you decide how hot, cold, wet, or windy it might be!

Date:

Astronomy

Aug. 02, 2013 Rise Set
Actual Time 6:24 AM CDT 8:46 PM CDT
Civil Twilight 5:53 AM CDT 9:18 PM CDT
Nautical Twilight 5:14 AM CDT 9:56 PM CDT
Astronomical Twilight 4:30 AM CDT 10:39 PM CDT
Moon 2:45 AM CDT (8/2) 5:46 PM CDT (8/2)
Length of Visible Light 15h 24m
Length of Day
14h 22m
Waning Crescent, 15% of the Moon is Illuminated
Aug 2
Waning Crescent
Aug 6
New
Aug 14
First Quarter
Aug 20
Full
Aug 28
Last Quarter

Hourly Weather History & Observations

Time (CDT) Temp. Dew Point Humidity Pressure Visibility Wind Dir Wind Speed Gust Speed Precip Events Conditions
12:56 AM 66.0 °F 63.0 °F 90% 29.90 in 10.0 mi Calm Calm - N/A   Clear
1:56 AM 66.0 °F 63.0 °F 90% 29.88 in 10.0 mi SSE 4.6 mph - N/A   Clear
2:56 AM 66.0 °F 64.0 °F 93% 29.88 in 10.0 mi NE 3.5 mph - N/A   Clear
3:56 AM 66.0 °F 64.0 °F 93% 29.87 in 10.0 mi SSW 3.5 mph - N/A   Clear
4:56 AM 64.0 °F 63.0 °F 96% 29.87 in 10.0 mi East 4.6 mph - N/A   Clear
5:56 AM 62.1 °F 61.0 °F 96% 29.89 in 9.0 mi Calm Calm - N/A   Clear
6:56 AM 61.0 °F 60.1 °F 97% 29.90 in 4.0 mi Calm Calm - N/A   Clear
7:56 AM 64.0 °F 63.0 °F 96% 29.90 in 4.0 mi Calm Calm - N/A   Clear
8:56 AM 66.9 °F 64.9 °F 93% 29.91 in 9.0 mi Calm Calm - N/A   Clear
9:56 AM 69.1 °F 64.9 °F 87% 29.93 in 10.0 mi NNE 4.6 mph - 0.00 in   Clear
10:56 AM 73.0 °F 64.9 °F 76% 29.93 in 10.0 mi Calm Calm - N/A   Partly Cloudy
11:56 AM 77.0 °F 64.0 °F 64% 29.94 in 10.0 mi NNE 4.6 mph - N/A   Mostly Cloudy
12:56 PM 78.1 °F 64.9 °F 64% 29.94 in 10.0 mi NNE 6.9 mph - N/A   Overcast
1:56 PM 78.1 °F 64.9 °F 64% 29.92 in 10.0 mi SE 5.8 mph - N/A   Overcast
2:56 PM 73.9 °F 66.9 °F 79% 29.93 in 10.0 mi ENE 13.8 mph 20.7 mph N/A   Overcast
3:56 PM 73.0 °F 66.0 °F 79% 29.95 in 10.0 mi ENE 8.1 mph - N/A   Overcast
4:40 PM 73.4 °F 66.2 °F 78% 29.97 in 10.0 mi ENE 12.7 mph - N/A   Overcast
4:56 PM 73.0 °F 66.0 °F 79% 29.94 in 9.0 mi NE 12.7 mph - N/A   Overcast
5:56 PM 73.0 °F 64.9 °F 76% 29.94 in 10.0 mi ENE 9.2 mph - N/A   Scattered Clouds
6:56 PM 72.0 °F 64.0 °F 76% 29.95 in 10.0 mi NE 8.1 mph - N/A   Partly Cloudy
7:56 PM 71.1 °F 63.0 °F 75% 29.97 in 10.0 mi NE 11.5 mph - N/A   Partly Cloudy
8:21 PM 69.8 °F 60.8 °F 73% 30.00 in 10.0 mi NE 12.7 mph - N/A   Mostly Cloudy
8:56 PM 66.9 °F 59.0 °F 76% 30.01 in 10.0 mi NE 10.4 mph - N/A   Overcast
9:56 PM 66.0 °F 59.0 °F 78% 30.03 in 10.0 mi ENE 9.2 mph - N/A   Overcast
10:05 PM 66.2 °F 59.0 °F 78% 30.06 in 10.0 mi ENE 6.9 mph - N/A   Overcast
10:56 PM 66.0 °F 59.0 °F 78% 30.04 in 10.0 mi ENE 8.1 mph - N/A   Overcast
11:56 PM 66.0 °F 60.1 °F 81% 30.03 in 10.0 mi NE 8.1 mph - N/A   Overcast